Regional Weather Roundup
Issued by NWS

Home | Current Version | Previous Version | Text Only | Print | Product List | Glossary Off
Versions: 1 2 3 4 5 6 7 8 9 10 11 12 13 14 15 16 17 18 19 20 21 22 23 24 25 26 27 28 29 30 31 32 33 34 35 36 37 38 39 40 41 42 43 44 45 46 47 48 49 50

000
ASUS43 KLSX 260507
RWRMO

WEATHER SUMMARY FOR MISSOURI
NATIONAL WEATHER SERVICE SPRINGFIELD MO
1200 AM CDT SAT JUL 26 2014

NOTE: "FAIR" INDICATES FEW OR NO CLOUDS BELOW 12,000 FEET WITH NO
       SIGNIFICANT WEATHER AND/OR OBSTRUCTIONS TO VISIBILITY.
       CURRENT SKY AND/OR WEATHER CONDITIONS ARE NOT AVAILABLE FOR
       CHILLICOTHE AND FARMINGTON.

MOZ001>031-035>038-043-044-053-054-260600-
...NORTHERN AND WESTERN MISSOURI...

CITY           SKY/WX    TMP DP  RH WIND       PRES   REMARKS
KANSAS CTY INT PTCLDY    83  74  74 SW16      29.81R
KANSAS C DTWN  CLEAR     85  74  69 SW17      29.80R HX  92
LEE`S SUMMIT   PTCLDY    82  73  74 SW14G24   29.83S
ST JOSEPH      CLEAR     82  73  74 SW10      29.77S
CHILLICOTHE      N/A     83  73  72 S10       29.80S
KIRKSVILLE     CLEAR     72  69  90 S7        29.83F

$$
MOZ066>068-077>081-088>096-101>105-260600-
...SOUTHWEST MISSOURI...

CITY           SKY/WX    TMP DP  RH WIND       PRES   REMARKS
SPRINGFIELD    CLEAR     76  70  82 S10       29.93R
JOPLIN         CLEAR     80  71  74 S16       29.91S

$$
MOZ032>034-039>042-045>050-055>058-069>072-260600-
...CENTRAL MISSOURI...

CITY           SKY/WX    TMP DP  RH WIND       PRES   REMARKS
COLUMBIA       CLEAR     77  71  82 S8        29.87R
JEFFERSON CITY CLEAR     79  70  74 SE5       29.87R
ROLLA          CLEAR     75  67  76 S12       29.92R
SEDALIA        CLEAR     81  70  69 SW10      29.86S
WHITEMAN AFB   CLEAR     82  65  56 SW18      29.84R
OSAGE BEACH    CLEAR     79  70  73 S5        29.90R

$$
MOZ051-052-059>065-260600-
...EAST CENTRAL MISSOURI...

CITY           SKY/WX    TMP DP  RH WIND       PRES   REMARKS
ST LOUIS INTL  CLEAR     76  65  68 S9        29.91F
SPIRIT OF STL  CLEAR     73  65  75 S6        29.89F
ST CHARLES     CLEAR     67  65  93 E6        29.89F

$$
MOZ072>076-082>087-097>100-106>115-260600-
...SOUTH CENTRAL AND SOUTHEAST MISSOURI...

CITY           SKY/WX    TMP DP  RH WIND       PRES   REMARKS
CAPE GIRARDEAU CLEAR     70  64  81 S5        29.95R
FARMINGTON     CLEAR     72  63  73 S6        29.97R
POPLAR BLUFF   CLEAR     68  63  84 CALM      29.95S
WEST PLAINS    CLEAR     73  68  84 S7        29.98S

$$



USA.gov is the U.S. government's official web portal to all federal, state and local government web resources and services.